| time (UTC) | temp C | wind direction | speed KPH | gust KPH | rain 1hr cm | rain 24hr cm | rain mn cm | humidity % | barometer mb |
| 20260508000053 | 15 | 255 | 8.0 | 16.1 | 0.00 | 0.00 | 0.00 | 50 | 1018.7 |
| 20260507234600 | 15 | 257 | 6.4 | 14.5 | 0.00 | 0.00 | 0.00 | 59 | 1018.9 |
| 20260507233052 | 15 | 207 | 4.8 | 19.3 | 0.00 | 0.00 | 0.00 | 55 | 1018.9 |
| 20260507231604 | 15 | 267 | 8.0 | 19.3 | 0.00 | 0.00 | 0.00 | 67 | 1018.9 |
| 20260507230059 | 15 | 242 | 8.0 | 19.3 | 0.00 | 0.00 | 0.00 | 69 | 1019.0 |
| 20260507224555 | 15 | 246 | 9.7 | 20.9 | 0.00 | 0.00 | 0.00 | 65 | 1019.1 |
| 20260507223058 | 15 | 219 | 4.8 | 16.1 | 0.00 | 0.00 | 0.00 | 67 | 1019.3 |
| 20260507221554 | 15 | 208 | 6.4 | 14.5 | 0.00 | 0.00 | 0.00 | 69 | 1019.2 |
| 20260507220059 | 15 | 196 | 8.0 | 12.9 | 0.00 | 0.00 | 0.00 | 72 | 1019.3 |
| 20260507214558 | 14 | 215 | 6.4 | 12.9 | 0.00 | 0.00 | 0.00 | 62 | 1019.4 |
| 20260507213052 | 14 | 216 | 6.4 | 16.1 | 0.00 | 0.00 | 0.00 | 67 | 1019.5 |
| 20260507211559 | 14 | 208 | 4.8 | 14.5 | 0.00 | 0.00 | 0.00 | 73 | 1019.5 |
| 20260507210056 | 13 | 0 | 6.4 | 19.3 | 0.00 | 0.00 | 0.00 | 70 | 1019.6 |
| 20260507204559 | 13 | 194 | 8.0 | 16.1 | 0.00 | 0.00 | 0.00 | 73 | 1019.6 |
| 20260507203100 | 14 | 187 | 6.4 | 11.3 | 0.00 | 0.00 | 0.00 | 70 | 1019.7 |
| 20260507201554 | 13 | 137 | 4.8 | 14.5 | 0.00 | 0.00 | 0.00 | 74 | 1019.7 |
| 20260507200054 | 13 | 179 | 4.8 | 17.7 | 0.00 | 0.00 | 0.00 | 64 | 1019.6 |
| 20260507194554 | 13 | 219 | 8.0 | 14.5 | 0.00 | 0.00 | 0.00 | 59 | 1019.7 |
| 20260507193100 | 12 | 188 | 3.2 | 12.9 | 0.00 | 0.00 | 0.00 | 67 | 1019.8 |
| 20260507191553 | 12 | 209 | 3.2 | 12.9 | 0.00 | 0.00 | 0.00 | 79 | 1019.7 |
| 20260507190052 | 12 | 119 | 4.8 | 11.3 | 0.00 | 0.00 | 0.00 | 82 | 1019.6 |
| 20260507184554 | 12 | 40 | 4.8 | 11.3 | 0.00 | 0.00 | 0.00 | 81 | 1019.7 |
| 20260507183058 | 11 | 115 | 1.6 | 11.3 | 0.00 | 0.00 | 0.00 | 83 | 1019.8 |
| 20260507181553 | 10 | 0 | 0.0 | 4.8 | 0.00 | 0.00 | 0.00 | 85 | 1019.7 |
| 20260507180053 | 10 | 105 | 3.2 | 12.9 | 0.00 | 0.00 | 0.00 | 85 | 1019.7 |
| 20260507174605 | 11 | 0 | 0.0 | 11.3 | 0.00 | 0.00 | 0.00 | 83 | 1019.6 |
| 20260507173101 | 10 | 146 | 1.6 | 11.3 | 0.00 | 0.00 | 0.00 | 85 | 1019.6 |
| 20260507171612 | 10 | 55 | 4.8 | 11.3 | 0.00 | 0.00 | 0.00 | 85 | 1019.6 |
| 20260507170058 | 8 | 74 | 4.8 | 12.9 | 0.00 | 0.00 | 0.00 | 88 | 1019.5 |
| 20260507164607 | 8 | 173 | 4.8 | 11.3 | 0.00 | 0.00 | 0.00 | 87 | 1019.4 |
| 20260507163054 | 7 | 141 | 4.8 | 12.9 | 0.00 | 0.00 | 0.00 | 92 | 1019.4 |
| 20260507161603 | 7 | 140 | 6.4 | 12.9 | 0.00 | 0.00 | 0.00 | 91 | 1019.4 |
| 20260507160100 | 7 | 189 | 4.8 | 12.9 | 0.00 | 0.00 | 0.00 | 94 | 1019.3 |
| 20260507154558 | 6 | 170 | 3.2 | 9.7 | 0.00 | 0.00 | 0.00 | 95 | 1019.4 |
| 20260507153055 | 6 | 173 | 4.8 | 11.3 | 0.00 | 0.00 | 0.00 | 97 | 1019.3 |
| 20260507151556 | 6 | 126 | 3.2 | 9.7 | 0.00 | 0.00 | 0.00 | 97 | 1019.4 |
| 20260507144557 | 6 | 150 | 3.2 | 11.3 | 0.00 | 0.00 | 0.00 | 99 | 1019.2 |
| 20260507143103 | 5 | 159 | 3.2 | 9.7 | 0.00 | 0.00 | 0.00 | 99 | 1019.2 |
| 20260507141556 | 5 | 173 | 6.4 | 12.9 | 0.00 | 0.00 | 0.00 | 99 | 1019.0 |
| 20260507140054 | 5 | 186 | 6.4 | 11.3 | 0.00 | 0.00 | 0.00 | 99 | 1018.9 |
| 20260507134555 | 5 | 165 | 3.2 | 8.0 | 0.00 | 0.00 | 0.00 | 99 | 1018.8 |
| 20260507133057 | 5 | 186 | 3.2 | 8.0 | 0.00 | 0.00 | 0.00 | 99 | 1018.9 |
| 20260507131558 | 5 | 0 | 1.6 | 11.3 | 0.00 | 0.00 | 0.00 | 99 | 1018.9 |
| 20260507130055 | 5 | 177 | 1.6 | 8.0 | 0.00 | 0.00 | 0.00 | 99 | 1019.0 |
| 20260507124555 | 5 | 182 | 3.2 | 11.3 | 0.00 | 0.00 | 0.00 | 99 | 1019.0 |
| 20260507123051 | 5 | 179 | 1.6 | 9.7 | 0.00 | 0.00 | 0.00 | 99 | 1019.0 |
| 20260507121556 | 5 | 191 | 4.8 | 11.3 | 0.00 | 0.00 | 0.00 | 99 | 1019.2 |
| 20260507120055 | 6 | 163 | 0.0 | 9.7 | 0.00 | 0.00 | 0.00 | 99 | 1019.3 |
| 20260507114559 | 6 | 198 | 1.6 | 9.7 | 0.00 | 0.00 | 0.00 | 99 | 1019.4 |
| 20260507113052 | 6 | 198 | 4.8 | 8.0 | 0.00 | 0.00 | 0.00 | 99 | 1019.5 |
| 20260507111555 | 6 | 203 | 3.2 | 9.7 | 0.00 | 0.00 | 0.00 | 99 | 1019.6 |
| 20260507110107 | 6 | 0 | 3.2 | 14.5 | 0.00 | 0.00 | 0.00 | 99 | 1019.7 |
| 20260507104550 | 6 | 212 | 3.2 | 12.9 | 0.00 | 0.00 | 0.00 | 99 | 1019.8 |
| 20260507103056 | 6 | 217 | 1.6 | 8.0 | 0.00 | 0.00 | 0.00 | 99 | 1019.8 |
| 20260507101558 | 6 | 165 | 4.8 | 11.3 | 0.00 | 0.00 | 0.00 | 99 | 1019.9 |
| 20260507100055 | 7 | 187 | 4.8 | 9.7 | 0.00 | 0.00 | 0.00 | 99 | 1020.0 |
| 20260507094610 | 7 | 197 | 3.2 | 11.3 | 0.00 | 0.00 | 0.00 | 99 | 1020.2 |
| 20260507093100 | 7 | 198 | 3.2 | 6.4 | 0.00 | 0.00 | 0.00 | 99 | 1020.4 |
| 20260507091635 | 7 | 198 | 0.0 | 9.7 | 0.00 | 0.00 | 0.00 | 99 | 1020.5 |
| 20260507090106 | 7 | 208 | 3.2 | 9.7 | 0.00 | 0.00 | 0.00 | 99 | 1020.7 |
| 20260507084555 | 7 | 192 | 1.6 | 11.3 | 0.00 | 0.00 | 0.00 | 99 | 1020.7 |
| 20260507083050 | 7 | 216 | 6.4 | 16.1 | 0.00 | 0.00 | 0.00 | 99 | 1020.6 |
| 20260507081555 | 7 | 209 | 4.8 | 11.3 | 0.00 | 0.00 | 0.00 | 99 | 1020.7 |
| 20260507080056 | 7 | 219 | 3.2 | 6.4 | 0.00 | 0.00 | 0.00 | 99 | 1020.7 |
| 20260507074553 | 8 | 173 | 6.4 | 12.9 | 0.00 | 0.00 | 0.00 | 99 | 1020.6 |
| 20260507073053 | 8 | 184 | 4.8 | 8.0 | 0.00 | 0.00 | 0.00 | 99 | 1020.7 |
| 20260507071554 | 7 | 188 | 4.8 | 9.7 | 0.00 | 0.00 | 0.00 | 99 | 1020.7 |
| 20260507070103 | 8 | 205 | 3.2 | 9.7 | 0.00 | 0.00 | 0.00 | 98 | 1020.8 |
| 20260507064553 | 8 | 197 | 4.8 | 9.7 | 0.00 | 0.00 | 0.00 | 98 | 1020.9 |
| 20260507063054 | 8 | 194 | 6.4 | 9.7 | 0.00 | 0.00 | 0.00 | 98 | 1021.0 |
| 20260507061558 | 8 | 0 | 1.6 | 9.7 | 0.00 | 0.00 | 0.00 | 98 | 1021.1 |
| 20260507060106 | 8 | 213 | 3.2 | 8.0 | 0.00 | 0.00 | 0.00 | 97 | 1021.1 |
| 20260507054558 | 8 | 239 | 3.2 | 8.0 | 0.00 | 0.00 | 0.00 | 97 | 1021.3 |
| 20260507053054 | 8 | 188 | 4.8 | 8.0 | 0.00 | 0.00 | 0.00 | 95 | 1021.4 |
| 20260507051550 | 8 | 0 | 0.0 | 4.8 | 0.00 | 0.00 | 0.00 | 91 | 1021.5 |
| 20260507050054 | 8 | 325 | 1.6 | 4.8 | 0.00 | 0.00 | 0.00 | 92 | 1021.6 |
| 20260507044552 | 8 | 0 | 0.0 | 1.6 | 0.00 | 0.00 | 0.00 | 98 | 1021.6 |
| 20260507043055 | 8 | 325 | 1.6 | 6.4 | 0.00 | 0.00 | 0.00 | 99 | 1021.7 |
| 20260507041553 | 8 | 325 | 4.8 | 11.3 | 0.00 | 0.00 | 0.00 | 98 | 1021.7 |
| 20260507040056 | 8 | 323 | 11.3 | 16.1 | 0.00 | 0.00 | 0.00 | 98 | 1021.6 |
| 20260507034559 | 9 | 17 | 11.3 | 14.5 | 0.00 | 0.00 | 0.00 | 98 | 1021.4 |
| 20260507033052 | 9 | 13 | 11.3 | 14.5 | 0.00 | 0.00 | 0.00 | 97 | 1021.3 |
| 20260507031549 | 9 | 24 | 11.3 | 14.5 | 0.00 | 0.00 | 0.00 | 95 | 1021.1 |
| 20260507030055 | 10 | 5 | 11.3 | 14.5 | 0.00 | 0.00 | 0.00 | 94 | 1021.1 |
| 20260507024559 | 10 | 324 | 8.0 | 17.7 | 0.00 | 0.00 | 0.00 | 93 | 1021.1 |
| 20260507023055 | 10 | 324 | 9.7 | 16.1 | 0.00 | 0.00 | 0.00 | 92 | 1021.1 |
| 20260507021557 | 10 | 324 | 8.0 | 12.9 | 0.00 | 0.00 | 0.00 | 91 | 1021.2 |
| 20260507020055 | 11 | 323 | 8.0 | 14.5 | 0.00 | 0.00 | 0.00 | 91 | 1021.2 |
| 20260507014558 | 11 | 360 | 6.4 | 16.1 | 0.00 | 0.00 | 0.00 | 90 | 1021.4 |
| 20260507013049 | 11 | 323 | 14.5 | 22.5 | 0.00 | 0.00 | 0.00 | 89 | 1021.3 |
| 20260507011551 | 11 | 16 | 12.9 | 25.7 | 0.00 | 0.00 | 0.00 | 88 | 1021.3 |
| 20260507010109 | 12 | 5 | 14.5 | 22.5 | 0.00 | 0.00 | 0.00 | 87 | 1021.4 |
| 20260507004553 | 12 | 313 | 9.7 | 20.9 | 0.00 | 0.00 | 0.00 | 87 | 1021.5 |
| 20260507003053 | 12 | 19 | 16.1 | 24.1 | 0.00 | 0.00 | 0.00 | 84 | 1021.4 |
| 20260507001555 | 13 | 320 | 8.0 | 19.3 | 0.00 | 0.00 | 0.00 | 80 | 1021.3 |